Regional Weather Roundup
Issued by NWS

Home | Current Version | Previous Version | Text Only | Print | Product List | Glossary On
Versions: 1 2 3 4 5 6 7 8 9 10 11 12 13 14 15 16 17 18 19 20 21 22 23 24 25 26 27 28 29 30 31 32 33 34 35 36 37 38 39 40 41 42 43 44 45 46 47 48 49 50
000
ASUS43 KTOP 251359
RWRKS

WEATHER ROUNDUP FOR KANSAS
NATIONAL WEATHER SERVICE GOODLAND KS
900 AM CDT THU AUG 25 2016

NOTE:  "FAIR" INDICATES FEW OR NO CLOUDS BELOW 12,000 FEET WITH NO
SIGNIFICANT WEATHER AND/OR OBSTRUCTIONS TO VISIBILITY.

KSZ001>006-013>018-027>032-041>047-251500-
NORTHWEST KANSAS

CITY           SKY/WX    TMP DP  RH WIND       PRES   REMARKS
GOODLAND       CLOUDY    56  50  80 SW5       30.23R
HAYS           CLOUDY    61  50  67 N9        30.17R
HILL CITY      CLOUDY    61  58  90 CALM      30.19R
RUSSELL        CLOUDY    60  57  89 N9        30.15R
$$

KSZ061>065-074>080-084>089-251500-
SOUTHWEST KANSAS

CITY           SKY/WX    TMP DP  RH WIND       PRES   REMARKS
DODGE CITY     MOSUNNY   63  60  90 N10       30.16S
ELKHART          N/A     59  55  87 N5          N/A
GARDEN CITY    CLOUDY    61  58  90 N7        30.18R
GREAT BEND     CLOUDY    64  55  72 N13       30.14R
LIBERAL        CLOUDY    63  57  82 N10       30.19R
$$

KSZ066>073-081>083-090>101-251500-
SOUTHEAST KANSAS

CITY           SKY/WX    TMP DP  RH WIND       PRES   REMARKS
CHANUTE        CLOUDY    74  68  81 SW5       30.06S
COFFEYVILLE    SUNNY     79  70  74 S12       30.06R
HUTCHINSON     CLOUDY    69  65  86 CALM      30.10R
MEDICINE LODGE   N/A     65  63  93 N12       30.10R
NEWTON         PTSUNNY   67  64  90 N10       30.10S
PARSONS        MOSUNNY   76  70  82 S6        30.07R
WICHITA INTL   CLOUDY    70  66  87 N14       30.08R
WICHITA JABRA  CLOUDY    70  67  90 NW14      30.08R
WINFIELD       SUNNY     75  71  87 S7        30.07R
$$

KSZ007>012-019>026-033>040-048>060-102>105-251500-
NORTHEAST KANSAS

CITY           SKY/WX    TMP DP  RH WIND       PRES   REMARKS
CONCORDIA      CLOUDY    62  57  83 E3        30.11R
EMPORIA        CLOUDY    71  67  87 NW5       30.07R
LAWRENCE       CLOUDY    71  32  23 MISG      30.07R
MANHATTAN      CLOUDY    68  32  26 NE8       30.08R
OLATHE IND     CLOUDY    71  70  96 SW5       30.08R
OLATHE EXE     PTSUNNY   71  70  96 SW3       30.08R
SALINA         PTSUNNY   68  63  84 NE8       30.10R
TOPEKA BILLARD CLOUDY    72  70  93 S3        30.06R
TOPEKA FORBES  CLOUDY    73  69  87 SW5       30.07R
$$




USA.gov is the U.S. government's official web portal to all federal, state and local government web resources and services.